Home   Weather   Oxnard   Past weeks

Flag for USA Past Weather in Oxnard, California, USA — Yesterday and Last 2 Weeks

Now
56 °F

Clear.


Feels Like: 54 °F
Forecast: 46 / 64 °F
Wind: 7 mph from Northeast

Location: Oxnard Airport

Current Time: Dec 2, 2016 at 8:40:26 pm

Latest Report: Dec 2, 2016 at 7:51 pm


Visibility: 10 mi

Pressure: 30.10 "Hg

Humidity: 33%

Dew Point: 27 °F

Location of OxnardLocation

Past Weather in Oxnard — Graph

°F

Oxnard Temperature Yesterday

Maximum temperature yesterday: 66 °F (at 11:51 am)
Minimum temperature yesterday: 47 °F (at 11:51 pm)
Average temperature yesterday: 56 °F

High & Low Weather Summary for the Past Weeks

 TemperatureHumidityPressure
High81 °F (Nov 24, 11:51 am)90% (Nov 20, 10:51 pm)30.17 "Hg (Nov 20, 10:51 pm)
Low45 °F (Nov 27, 3:51 am)8% (Nov 18, 10:51 am)29.81 "Hg (Nov 28, 3:51 pm)
Average58 °F56%30.02 "Hg
* Reported Nov 17 6:51 pm — Dec 2 6:51 pm, Oxnard, Weather by CustomWeather, © 2016

Note: Actual official high and low records may vary slightly from our data, if they occured in-between our weather recording intervals... More about our weather records

Advertising

Oxnard Weather History for the Previous 24 Hours

Scroll right to see more
 ConditionsComfort  
Time TempWeatherWind HumidityBarometerVisibility
6:51 pm
Fri, Dec 2
59 °FClear.3 mph36%30.09 "Hg10 mi
5:51 pm58 °FClear.No wind62%30.08 "Hg10 mi
4:51 pm57 °FClear.6 mph67%30.06 "Hg10 mi
3:51 pm61 °FSunny.10 mph56%30.05 "Hg10 mi
2:51 pm63 °FSunny.13 mph48%30.04 "Hg10 mi
1:51 pm64 °FSunny.16 mph45%30.02 "Hg10 mi
12:51 pm65 °FSunny.18 mph40%30.03 "Hg10 mi
11:51 am67 °FSunny.16 mph16%30.05 "Hg10 mi
10:51 am65 °FSunny.20 mph17%30.07 "Hg10 mi
9:51 am63 °FSunny.17 mph20%30.08 "Hg10 mi
8:51 am61 °FSunny.16 mph27%30.07 "Hg10 mi
7:51 am57 °FSunny.13 mph34%30.04 "Hg10 mi
6:51 am55 °FSunny.8 mph39%30.03 "Hg10 mi
5:51 am53 °FClear.9 mph43%30.01 "Hg10 mi
4:51 am54 °FClear.12 mph47%29.99 "Hg10 mi
3:51 am48 °FClear.7 mph61%29.98 "Hg10 mi
2:51 am51 °FClear.7 mph54%29.98 "Hg10 mi
1:51 am49 °FClear.7 mph59%29.98 "Hg10 mi
12:51 am48 °FClear.3 mph63%29.98 "Hg10 mi
11:51 pm
Thu, Dec 1
47 °FClear.3 mph69%29.97 "Hg10 mi
10:51 pm52 °FClear.6 mph57%29.97 "Hg10 mi
9:51 pm52 °FClear.7 mph64%29.97 "Hg10 mi
8:51 pm53 °FClear.3 mph69%29.96 "Hg10 mi
Weather by CustomWeather, © 2016

See weather overviewHow to use our weather pages